Time,TemperatureF,DewpointF,PressureIn,WindDirection,WindDirectionDegrees,WindSpeedMPH,WindSpeedGustMPH,Humidity,HourlyPrecipIn,Conditions,Clouds,dailyrainin,SoftwareType,DateUTC
2013-01-31 00:02:00,13.3,3.0,22.39,North,0,0.0,0.0,63,0.00,,,0.00,meteohub,2013-01-31 06:02:00,
2013-01-31 00:07:00,13.3,3.0,22.39,North,0,0.0,0.0,63,0.00,,,0.00,meteohub,2013-01-31 06:07:00,
2013-01-31 00:12:00,13.1,3.2,22.39,North,0,0.0,0.0,64,0.00,,,0.00,meteohub,2013-01-31 06:12:00,
2013-01-31 00:17:00,13.1,3.2,22.39,North,0,0.0,0.0,64,0.00,,,0.00,meteohub,2013-01-31 06:17:00,
2013-01-31 00:22:00,13.1,3.2,22.38,NW,315,0.0,0.0,64,0.00,,,0.00,meteohub,2013-01-31 06:22:00,
2013-01-31 00:27:00,13.1,3.2,22.38,North,0,0.0,0.0,64,0.00,,,0.00,meteohub,2013-01-31 06:27:00,
2013-01-31 00:32:00,12.9,3.4,22.38,North,0,0.0,0.0,65,0.00,,,0.00,meteohub,2013-01-31 06:32:00,
2013-01-31 00:37:00,12.9,3.4,22.38,NW,315,0.0,0.0,65,0.00,,,0.00,meteohub,2013-01-31 06:37:00,
2013-01-31 00:42:00,12.9,3.4,22.38,NE,45,0.0,0.0,65,0.00,,,0.00,meteohub,2013-01-31 06:42:00,
2013-01-31 00:47:00,12.7,3.6,22.38,NNE,23,0.0,0.0,66,0.00,,,0.00,meteohub,2013-01-31 06:47:00,
2013-01-31 00:52:00,12.7,3.6,22.37,NW,315,0.0,0.0,66,0.00,,,0.00,meteohub,2013-01-31 06:52:00,
2013-01-31 00:57:00,12.6,3.4,22.37,NE,45,0.0,0.0,66,0.00,,,0.00,meteohub,2013-01-31 06:57:00,
2013-01-31 01:02:00,12.4,3.2,22.37,North,0,0.0,0.0,66,0.00,,,0.00,meteohub,2013-01-31 07:02:00,
2013-01-31 01:07:00,12.4,3.2,22.37,NW,315,0.0,0.0,66,0.00,,,0.00,meteohub,2013-01-31 07:07:00,
2013-01-31 01:12:00,12.2,3.0,22.37,North,0,0.0,0.0,66,0.00,,,0.00,meteohub,2013-01-31 07:12:00,
2013-01-31 01:17:00,12.2,3.0,22.37,NE,45,0.0,0.0,66,0.00,,,0.00,meteohub,2013-01-31 07:17:00,
2013-01-31 01:22:00,12.2,2.7,22.36,North,0,0.0,0.0,65,0.00,,,0.00,meteohub,2013-01-31 07:22:00,
2013-01-31 01:27:00,12.0,2.8,22.37,North,0,0.0,0.0,66,0.00,,,0.00,meteohub,2013-01-31 07:27:00,
2013-01-31 01:32:00,12.0,2.8,22.37,NW,315,0.0,0.0,66,0.00,,,0.00,meteohub,2013-01-31 07:32:00,
2013-01-31 01:37:00,12.0,2.8,22.36,WNW,293,0.0,0.0,66,0.00,,,0.00,meteohub,2013-01-31 07:37:00,
2013-01-31 01:42:00,12.0,2.8,22.36,North,0,0.0,0.0,66,0.00,,,0.00,meteohub,2013-01-31 07:42:00,
2013-01-31 01:47:00,11.8,2.7,22.35,North,0,0.0,0.0,66,0.00,,,0.00,meteohub,2013-01-31 07:47:00,
2013-01-31 01:52:00,11.8,2.3,22.35,ENE,68,0.0,0.0,65,0.00,,,0.00,meteohub,2013-01-31 07:52:00,
2013-01-31 01:57:00,12.0,2.5,22.35,North,0,0.0,0.0,65,0.00,,,0.00,meteohub,2013-01-31 07:57:00,
2013-01-31 02:02:00,12.0,2.5,22.35,North,0,0.0,0.0,65,0.00,,,0.00,meteohub,2013-01-31 08:02:00,
2013-01-31 02:07:00,12.0,2.5,22.34,North,0,0.0,0.0,65,0.00,,,0.00,meteohub,2013-01-31 08:07:00,
2013-01-31 02:12:00,11.8,1.9,22.34,North,0,0.0,0.0,64,0.00,,,0.00,meteohub,2013-01-31 08:12:00,
2013-01-31 02:17:00,11.7,1.6,22.34,NE,45,0.0,0.0,63,0.00,,,0.00,meteohub,2013-01-31 08:17:00,
2013-01-31 02:22:00,11.7,1.2,22.34,NNW,338,0.0,0.0,62,0.00,,,0.00,meteohub,2013-01-31 08:22:00,
2013-01-31 02:27:00,11.7,0.9,22.34,NE,45,0.0,0.0,61,0.00,,,0.00,meteohub,2013-01-31 08:27:00,
2013-01-31 02:32:00,11.5,0.0,22.34,North,0,0.0,0.0,59,0.00,,,0.00,meteohub,2013-01-31 08:32:00,
2013-01-31 02:37:00,11.5,0.0,22.34,NE,45,0.0,0.0,59,0.00,,,0.00,meteohub,2013-01-31 08:37:00,
2013-01-31 02:42:00,11.5,0.0,22.34,NE,45,0.0,0.0,59,0.00,,,0.00,meteohub,2013-01-31 08:42:00,
2013-01-31 02:47:00,11.3,-0.2,22.34,NE,45,0.0,0.0,59,0.00,,,0.00,meteohub,2013-01-31 08:47:00,
2013-01-31 02:52:00,11.1,-0.4,22.34,NE,45,0.0,0.0,59,0.00,,,0.00,meteohub,2013-01-31 08:52:00,
2013-01-31 02:57:00,11.1,-0.8,22.34,East,90,0.0,0.0,58,0.00,,,0.00,meteohub,2013-01-31 08:57:00,
2013-01-31 03:03:00,11.1,-0.8,22.34,NE,45,0.0,0.0,58,0.00,,,0.00,meteohub,2013-01-31 09:03:00,
2013-01-31 03:08:00,11.1,-0.8,22.34,North,0,0.0,0.0,58,0.00,,,0.00,meteohub,2013-01-31 09:08:00,
2013-01-31 03:13:00,11.1,-0.4,22.34,NE,45,0.0,0.0,59,0.00,,,0.00,meteohub,2013-01-31 09:13:00,
2013-01-31 03:21:00,11.1,-0.4,22.33,NE,45,0.0,0.0,59,0.00,,,0.00,meteohub,2013-01-31 09:21:00,
2013-01-31 03:26:00,10.9,-0.6,22.34,North,0,0.0,0.0,59,0.00,,,0.00,meteohub,2013-01-31 09:26:00,
2013-01-31 03:31:00,11.1,-0.4,22.34,NE,45,0.0,0.0,59,0.00,,,0.00,meteohub,2013-01-31 09:31:00,
2013-01-31 03:36:00,10.9,-0.9,22.33,NE,45,0.0,0.0,58,0.00,,,0.00,meteohub,2013-01-31 09:36:00,
2013-01-31 03:41:00,11.1,-0.8,22.33,North,0,0.0,0.0,58,0.00,,,0.00,meteohub,2013-01-31 09:41:00,
2013-01-31 03:46:00,10.9,-0.9,22.32,North,0,0.0,0.0,58,0.00,,,0.00,meteohub,2013-01-31 09:46:00,
2013-01-31 03:51:00,10.9,-1.3,22.32,North,0,0.0,0.0,57,0.00,,,0.00,meteohub,2013-01-31 09:51:00,
2013-01-31 03:56:00,10.9,-1.3,22.32,NNE,23,0.0,0.0,57,0.00,,,0.00,meteohub,2013-01-31 09:56:00,
2013-01-31 04:01:00,10.9,-1.3,22.33,WNW,293,0.0,0.0,57,0.00,,,0.00,meteohub,2013-01-31 10:01:00,
2013-01-31 04:06:00,10.9,-1.3,22.33,WNW,293,0.0,0.0,57,0.00,,,0.00,meteohub,2013-01-31 10:06:00,
2013-01-31 04:11:00,10.8,-1.8,22.32,East,90,0.0,0.0,56,0.00,,,0.00,meteohub,2013-01-31 10:11:00,
2013-01-31 04:16:00,10.8,-1.8,22.32,North,0,0.0,0.0,56,0.00,,,0.00,meteohub,2013-01-31 10:16:00,
2013-01-31 04:21:00,10.6,-2.0,22.32,NE,45,0.0,0.0,56,0.00,,,0.00,meteohub,2013-01-31 10:21:00,
2013-01-31 04:26:00,10.6,-2.4,22.32,East,90,0.0,0.0,55,0.00,,,0.00,meteohub,2013-01-31 10:26:00,
2013-01-31 04:31:00,10.6,-2.4,22.32,North,0,0.0,0.0,55,0.00,,,0.00,meteohub,2013-01-31 10:31:00,
2013-01-31 04:36:00,10.4,-2.6,22.31,North,0,0.0,0.0,55,0.00,,,0.00,meteohub,2013-01-31 10:36:00,
2013-01-31 04:41:00,10.4,-2.6,22.32,NE,45,0.0,0.0,55,0.00,,,0.00,meteohub,2013-01-31 10:41:00,
2013-01-31 04:46:00,10.2,-4.4,22.32,North,0,0.0,0.0,51,0.00,,,0.00,meteohub,2013-01-31 10:46:00,
2013-01-31 04:51:00,10.2,-4.0,22.32,NE,45,0.0,0.0,52,0.00,,,0.00,meteohub,2013-01-31 10:51:00,
2013-01-31 04:56:00,10.2,-4.0,22.31,NE,45,0.0,0.0,52,0.00,,,0.00,meteohub,2013-01-31 10:56:00,
2013-01-31 05:01:00,10.0,-4.0,22.31,North,0,0.0,0.0,52,0.00,,,0.00,meteohub,2013-01-31 11:01:00,
2013-01-31 05:06:00,10.0,-4.0,22.31,NE,45,0.0,0.0,52,0.00,,,0.00,meteohub,2013-01-31 11:06:00,
2013-01-31 05:11:00,9.9,-3.8,22.32,NE,45,0.0,0.0,53,0.00,,,0.00,meteohub,2013-01-31 11:11:00,
2013-01-31 05:16:00,9.7,-4.0,22.31,NE,45,0.0,0.0,53,0.00,,,0.00,meteohub,2013-01-31 11:16:00,
2013-01-31 05:21:00,9.7,-4.0,22.31,NE,45,0.0,0.0,53,0.00,,,0.00,meteohub,2013-01-31 11:21:00,
2013-01-31 05:26:00,9.5,-3.8,22.32,North,0,0.0,0.0,54,0.00,,,0.00,meteohub,2013-01-31 11:26:00,
2013-01-31 05:31:00,9.5,-3.8,22.31,NE,45,0.0,0.0,54,0.00,,,0.00,meteohub,2013-01-31 11:31:00,
2013-01-31 05:36:00,9.5,-3.5,22.31,NE,45,0.0,0.0,55,0.00,,,0.00,meteohub,2013-01-31 11:36:00,
2013-01-31 05:41:00,9.3,-3.3,22.31,WNW,293,0.0,0.0,56,0.00,,,0.00,meteohub,2013-01-31 11:41:00,
2013-01-31 05:46:00,9.3,-2.9,22.31,North,0,0.0,0.0,57,0.00,,,0.00,meteohub,2013-01-31 11:46:00,
2013-01-31 05:51:00,9.3,-2.4,22.31,NE,45,0.0,0.0,58,0.00,,,0.00,meteohub,2013-01-31 11:51:00,
2013-01-31 05:56:00,9.3,-2.4,22.31,NE,45,0.0,0.0,58,0.00,,,0.00,meteohub,2013-01-31 11:56:00,
2013-01-31 06:01:00,9.3,-2.4,22.30,North,0,0.0,0.0,58,0.00,,,0.00,meteohub,2013-01-31 12:01:00,
2013-01-31 06:06:00,9.3,-2.4,22.30,North,0,0.0,0.0,58,0.00,,,0.00,meteohub,2013-01-31 12:06:00,
2013-01-31 06:11:00,9.3,-2.4,22.30,NW,315,0.0,0.0,58,0.00,,,0.00,meteohub,2013-01-31 12:11:00,
2013-01-31 06:16:00,9.3,-2.4,22.30,NE,45,0.0,0.0,58,0.00,,,0.00,meteohub,2013-01-31 12:16:00,
2013-01-31 06:21:00,9.1,-2.2,22.30,North,0,0.0,0.0,59,0.00,,,0.00,meteohub,2013-01-31 12:21:00,
2013-01-31 06:26:00,9.1,-2.2,22.30,North,0,0.0,0.0,59,0.00,,,0.00,meteohub,2013-01-31 12:26:00,
2013-01-31 06:31:00,9.1,-1.8,22.30,NE,45,0.0,0.0,60,0.00,,,0.00,meteohub,2013-01-31 12:31:00,
2013-01-31 06:36:00,9.1,-1.8,22.30,North,0,0.0,0.0,60,0.00,,,0.00,meteohub,2013-01-31 12:36:00,
2013-01-31 06:41:00,9.0,-1.7,22.29,North,0,0.0,0.0,61,0.00,,,0.00,meteohub,2013-01-31 12:41:00,
2013-01-31 06:46:00,9.0,-1.5,22.28,North,0,0.0,0.0,62,0.00,,,0.00,meteohub,2013-01-31 12:46:00,
2013-01-31 06:51:00,9.0,-1.5,22.28,East,90,0.0,0.0,62,0.00,,,0.00,meteohub,2013-01-31 12:51:00,
2013-01-31 06:56:00,8.8,-1.7,22.28,North,0,0.0,0.0,62,0.00,,,0.00,meteohub,2013-01-31 12:56:00,
2013-01-31 07:01:00,8.8,-1.8,22.28,North,0,0.0,0.0,61,0.00,,,0.00,meteohub,2013-01-31 13:01:00,
2013-01-31 07:06:00,8.6,-2.0,22.27,North,0,0.0,0.0,61,0.00,,,0.00,meteohub,2013-01-31 13:06:00,
2013-01-31 07:11:00,8.4,-1.8,22.27,NE,45,0.0,0.0,62,0.00,,,0.00,meteohub,2013-01-31 13:11:00,
2013-01-31 07:16:00,8.2,-2.4,22.27,North,0,0.0,0.0,61,0.00,,,0.00,meteohub,2013-01-31 13:16:00,
2013-01-31 07:21:00,8.2,-2.4,22.26,North,0,0.0,0.0,61,0.00,,,0.00,meteohub,2013-01-31 13:21:00,
2013-01-31 07:26:00,8.2,-2.0,22.26,North,0,0.0,0.0,62,0.00,,,0.00,meteohub,2013-01-31 13:26:00,
2013-01-31 07:31:00,8.4,-1.8,22.26,North,0,0.0,0.0,62,0.00,,,0.00,meteohub,2013-01-31 13:31:00,
2013-01-31 07:36:00,8.4,-1.8,22.26,NE,45,0.0,0.0,62,0.00,,,0.00,meteohub,2013-01-31 13:36:00,
2013-01-31 07:41:00,8.4,-2.2,22.26,North,0,0.0,0.0,61,0.00,,,0.00,meteohub,2013-01-31 13:41:00,
2013-01-31 07:46:00,8.4,-2.2,22.25,NE,45,0.0,0.0,61,0.00,,,0.00,meteohub,2013-01-31 13:46:00,
2013-01-31 07:51:00,8.8,-2.2,22.25,NNW,338,0.0,0.0,60,0.00,,,0.00,meteohub,2013-01-31 13:51:00,
2013-01-31 07:56:00,9.0,-2.0,22.25,NE,45,0.0,0.0,60,0.00,,,0.00,meteohub,2013-01-31 13:56:00,
2013-01-31 08:01:00,8.8,-2.6,22.24,North,0,0.0,0.0,59,0.00,,,0.00,meteohub,2013-01-31 14:01:00,
2013-01-31 08:06:00,8.8,-2.6,22.24,North,0,0.0,0.0,59,0.00,,,0.00,meteohub,2013-01-31 14:06:00,
2013-01-31 08:11:00,8.6,-3.1,22.24,North,0,0.0,0.0,58,0.00,,,0.00,meteohub,2013-01-31 14:11:00,
2013-01-31 08:16:00,8.6,-3.1,22.24,NE,45,0.0,0.0,58,0.00,,,0.00,meteohub,2013-01-31 14:16:00,
2013-01-31 08:21:00,8.8,-2.9,22.24,ESE,113,0.0,0.0,58,0.00,,,0.00,meteohub,2013-01-31 14:21:00,
2013-01-31 08:26:00,8.6,-3.1,22.23,North,0,0.0,0.0,58,0.00,,,0.00,meteohub,2013-01-31 14:26:00,
2013-01-31 08:31:00,9.0,-2.7,22.23,NW,315,0.0,0.0,58,0.00,,,0.00,meteohub,2013-01-31 14:31:00,
2013-01-31 08:36:00,9.0,-2.7,22.23,NE,45,0.0,0.0,58,0.00,,,0.00,meteohub,2013-01-31 14:36:00,
2013-01-31 08:41:00,9.0,-2.7,22.23,NE,45,0.0,0.0,58,0.00,,,0.00,meteohub,2013-01-31 14:41:00,
2013-01-31 08:46:00,9.0,-2.7,22.22,NE,45,0.0,0.0,58,0.00,,,0.00,meteohub,2013-01-31 14:46:00,
2013-01-31 08:51:00,9.5,-2.4,22.22,NE,45,0.0,0.0,58,0.00,,,0.00,meteohub,2013-01-31 14:51:00,
2013-01-31 08:56:00,9.3,-2.4,22.22,NNE,23,0.0,0.0,58,0.00,,,0.00,meteohub,2013-01-31 14:56:00,
2013-01-31 09:01:00,9.3,-2.4,22.22,NE,45,0.0,0.0,58,0.00,,,0.00,meteohub,2013-01-31 15:01:00,
2013-01-31 09:06:00,9.5,-2.7,22.22,SW,225,0.0,0.0,57,0.00,,,0.00,meteohub,2013-01-31 15:06:00,
2013-01-31 09:11:00,9.7,-2.6,22.22,NE,45,0.0,0.0,57,0.00,,,0.00,meteohub,2013-01-31 15:11:00,
2013-01-31 09:16:00,9.7,-2.9,22.22,North,0,0.0,0.0,56,0.00,,,0.00,meteohub,2013-01-31 15:16:00,
2013-01-31 09:21:00,9.5,-3.1,22.22,North,0,0.0,0.0,56,0.00,,,0.00,meteohub,2013-01-31 15:21:00,
2013-01-31 09:26:00,9.9,-3.1,22.22,NE,45,0.0,0.0,55,0.00,,,0.00,meteohub,2013-01-31 15:26:00,
2013-01-31 09:31:00,9.7,-4.0,22.21,NNE,23,0.0,0.0,53,0.00,,,0.00,meteohub,2013-01-31 15:31:00,
2013-01-31 09:36:00,9.9,-4.2,22.21,NE,45,0.0,0.0,52,0.00,,,0.00,meteohub,2013-01-31 15:36:00,
2013-01-31 09:41:00,9.7,-4.9,22.21,ENE,68,0.0,0.0,51,0.00,,,0.00,meteohub,2013-01-31 15:41:00,
2013-01-31 09:46:00,9.5,-5.4,22.21,North,0,0.0,0.0,50,0.00,,,0.00,meteohub,2013-01-31 15:46:00,
2013-01-31 09:51:00,10.6,-2.7,22.20,North,0,0.0,0.0,54,0.00,,,0.00,meteohub,2013-01-31 15:51:00,
2013-01-31 09:56:00,10.9,-2.9,22.20,NE,45,0.0,0.0,53,0.00,,,0.00,meteohub,2013-01-31 15:56:00,
2013-01-31 10:01:00,10.4,-3.3,22.20,NE,45,0.0,0.0,53,0.00,,,0.00,meteohub,2013-01-31 16:01:00,
2013-01-31 10:06:00,10.4,-3.3,22.20,NE,45,0.0,0.0,53,0.00,,,0.00,meteohub,2013-01-31 16:06:00,
2013-01-31 10:11:00,10.2,-4.7,22.20,NW,315,0.0,0.0,50,0.00,,,0.00,meteohub,2013-01-31 16:11:00,
2013-01-31 10:16:00,10.6,-3.1,22.19,NE,45,0.0,0.0,53,0.00,,,0.00,meteohub,2013-01-31 16:16:00,
2013-01-31 10:21:00,11.1,-2.7,22.19,North,0,0.0,0.0,53,0.00,,,0.00,meteohub,2013-01-31 16:21:00,
2013-01-31 10:26:00,12.0,-2.2,22.19,NE,45,0.0,0.0,52,0.00,,,0.00,meteohub,2013-01-31 16:26:00,
2013-01-31 10:31:00,11.3,-3.3,22.19,North,0,0.0,0.0,51,0.00,,,0.00,meteohub,2013-01-31 16:31:00,
2013-01-31 10:36:00,11.3,-2.9,22.19,NE,45,0.0,0.0,52,0.00,,,0.00,meteohub,2013-01-31 16:36:00,
2013-01-31 10:41:00,11.3,-3.3,22.18,NE,45,0.0,0.0,51,0.00,,,0.00,meteohub,2013-01-31 16:41:00,
2013-01-31 10:46:00,11.3,-3.6,22.19,North,0,0.0,0.0,50,0.00,,,0.00,meteohub,2013-01-31 16:46:00,
2013-01-31 10:51:00,11.8,-2.7,22.18,NE,45,0.0,0.0,51,0.00,,,0.00,meteohub,2013-01-31 16:51:00,
2013-01-31 10:56:00,11.3,-3.6,22.18,SW,225,0.0,0.0,50,0.00,,,0.00,meteohub,2013-01-31 16:56:00,
2013-01-31 11:01:00,12.0,-3.1,22.18,North,0,0.0,0.0,50,0.00,,,0.00,meteohub,2013-01-31 17:01:00,
2013-01-31 11:06:00,11.5,-4.0,22.17,North,0,0.0,0.0,49,0.00,,,0.00,meteohub,2013-01-31 17:06:00,
2013-01-31 11:11:00,11.5,-4.0,22.17,NE,45,0.0,0.0,49,0.00,,,0.00,meteohub,2013-01-31 17:11:00,
2013-01-31 11:16:00,11.8,-3.6,22.17,North,0,0.0,0.0,49,0.00,,,0.00,meteohub,2013-01-31 17:16:00,
2013-01-31 11:21:00,14.2,-2.4,22.17,NW,315,0.0,0.0,47,0.00,,,0.00,meteohub,2013-01-31 17:21:00,
2013-01-31 11:27:00,13.3,-3.6,22.17,West,270,0.0,0.0,46,0.00,,,0.00,meteohub,2013-01-31 17:27:00,
2013-01-31 11:32:00,12.0,-4.4,22.17,NE,45,0.0,0.0,47,0.00,,,0.00,meteohub,2013-01-31 17:32:00,
2013-01-31 11:37:00,12.4,-4.0,22.17,NE,45,0.0,0.0,47,0.00,,,0.00,meteohub,2013-01-31 17:37:00,
2013-01-31 11:42:00,12.6,-3.8,22.17,NW,315,0.0,0.0,47,0.00,,,0.00,meteohub,2013-01-31 17:42:00,
2013-01-31 11:47:00,12.9,-3.5,22.17,NE,45,0.0,0.0,47,0.00,,,0.00,meteohub,2013-01-31 17:47:00,
2013-01-31 11:52:00,13.1,-3.8,22.17,NE,45,0.0,0.0,46,0.00,,,0.00,meteohub,2013-01-31 17:52:00,
2013-01-31 11:57:00,12.7,-4.5,22.17,NE,45,0.0,0.0,45,0.00,,,0.00,meteohub,2013-01-31 17:57:00,
2013-01-31 12:02:00,12.4,-4.9,22.17,NE,45,0.0,0.0,45,0.00,,,0.00,meteohub,2013-01-31 18:02:00,
2013-01-31 12:07:00,12.4,-4.9,22.17,NE,45,0.0,0.0,45,0.00,,,0.00,meteohub,2013-01-31 18:07:00,
2013-01-31 12:12:00,12.2,-4.7,22.17,ENE,68,0.0,0.0,46,0.00,,,0.00,meteohub,2013-01-31 18:12:00,
2013-01-31 12:17:00,12.7,-4.2,22.17,NE,45,0.0,0.0,46,0.00,,,0.00,meteohub,2013-01-31 18:17:00,
2013-01-31 12:22:00,12.6,-4.7,22.17,NE,45,0.0,0.0,45,0.00,,,0.00,meteohub,2013-01-31 18:22:00,
2013-01-31 12:27:00,12.7,-5.1,22.16,NE,45,0.0,0.0,44,0.00,,,0.00,meteohub,2013-01-31 18:27:00,
2013-01-31 12:32:00,13.5,-4.4,22.16,North,0,0.0,0.0,44,0.00,,,0.00,meteohub,2013-01-31 18:32:00,
2013-01-31 12:37:00,13.5,-4.9,22.16,East,90,0.0,0.0,43,0.00,,,0.00,meteohub,2013-01-31 18:37:00,
2013-01-31 12:42:00,13.8,-4.5,22.16,NNW,338,0.0,0.0,43,0.00,,,0.00,meteohub,2013-01-31 18:42:00,
2013-01-31 12:47:00,14.0,-4.4,22.16,NNE,23,0.0,0.0,43,0.00,,,0.00,meteohub,2013-01-31 18:47:00,
2013-01-31 12:52:00,15.4,-3.6,22.16,WNW,293,0.0,0.0,42,0.00,,,0.00,meteohub,2013-01-31 18:52:00,
2013-01-31 12:57:00,16.9,-3.3,22.15,North,0,0.0,0.0,40,0.00,,,0.00,meteohub,2013-01-31 18:57:00,
2013-01-31 13:02:00,16.2,-4.5,22.15,NE,45,0.0,0.0,39,0.00,,,0.00,meteohub,2013-01-31 19:02:00,
2013-01-31 13:07:00,14.7,-5.3,22.16,NW,315,0.0,0.0,40,0.00,,,0.00,meteohub,2013-01-31 19:07:00,
2013-01-31 13:12:00,13.5,-5.8,22.15,North,0,0.0,0.0,41,0.00,,,0.00,meteohub,2013-01-31 19:12:00,
2013-01-31 13:17:00,12.6,-6.2,22.15,NE,45,0.0,0.0,42,0.00,,,0.00,meteohub,2013-01-31 19:17:00,
2013-01-31 13:22:00,12.4,-5.8,22.15,NE,45,0.0,0.0,43,0.00,,,0.00,meteohub,2013-01-31 19:22:00,
2013-01-31 13:27:00,12.6,-5.6,22.15,NE,45,0.0,0.0,43,0.00,,,0.00,meteohub,2013-01-31 19:27:00,
2013-01-31 13:32:00,12.6,-5.6,22.15,NE,45,0.0,0.0,43,0.00,,,0.00,meteohub,2013-01-31 19:32:00,
2013-01-31 13:37:00,11.8,-5.8,22.15,North,0,0.0,0.0,44,0.00,,,0.00,meteohub,2013-01-31 19:37:00,
2013-01-31 13:42:00,11.7,-6.0,22.14,North,0,0.0,0.0,44,0.00,,,0.00,meteohub,2013-01-31 19:42:00,
2013-01-31 13:47:00,11.7,-6.0,22.15,NE,45,0.0,0.0,44,0.00,,,0.00,meteohub,2013-01-31 19:47:00,
2013-01-31 13:52:00,11.7,-6.0,22.14,East,90,0.0,0.0,44,0.00,,,0.00,meteohub,2013-01-31 19:52:00,
2013-01-31 13:57:00,11.5,-6.2,22.14,North,0,0.0,0.0,44,0.00,,,0.00,meteohub,2013-01-31 19:57:00,
2013-01-31 14:02:00,11.7,-5.6,22.14,North,0,0.0,0.0,45,0.00,,,0.00,meteohub,2013-01-31 20:02:00,
2013-01-31 14:07:00,11.7,-5.6,22.14,North,0,0.0,0.0,45,0.00,,,0.00,meteohub,2013-01-31 20:07:00,
2013-01-31 14:12:00,10.6,-6.2,22.14,NW,315,0.0,0.0,46,0.00,,,0.00,meteohub,2013-01-31 20:12:00,
2013-01-31 14:17:00,10.6,-5.6,22.13,ESE,113,0.0,0.0,47,0.00,,,0.00,meteohub,2013-01-31 20:17:00,
2013-01-31 14:22:00,10.2,-7.8,22.13,WNW,293,0.0,0.0,43,0.00,,,0.00,meteohub,2013-01-31 20:22:00,
2013-01-31 14:27:00,10.6,-5.6,22.13,NNE,23,0.0,0.0,47,0.00,,,0.00,meteohub,2013-01-31 20:27:00,
2013-01-31 14:32:00,11.8,-4.9,22.13,North,0,0.0,0.0,46,0.00,,,0.00,meteohub,2013-01-31 20:32:00,
2013-01-31 14:37:00,11.5,-5.8,22.12,NE,45,0.0,0.0,45,0.00,,,0.00,meteohub,2013-01-31 20:37:00,
2013-01-31 14:42:00,10.8,-6.3,22.12,North,0,0.0,0.0,45,0.00,,,0.00,meteohub,2013-01-31 20:42:00,
2013-01-31 14:47:00,10.9,-5.8,22.12,North,0,0.0,0.0,46,0.00,,,0.00,meteohub,2013-01-31 20:47:00,
2013-01-31 14:52:00,10.0,-9.0,22.12,NE,45,0.0,0.0,41,0.00,,,0.00,meteohub,2013-01-31 20:52:00,
2013-01-31 14:57:00,10.2,-8.3,22.12,North,0,0.0,0.0,42,0.00,,,0.00,meteohub,2013-01-31 20:57:00,
2013-01-31 15:02:00,10.2,-8.3,22.12,NE,45,0.0,0.0,42,0.00,,,0.00,meteohub,2013-01-31 21:02:00,
2013-01-31 15:07:00,9.7,-8.9,22.11,North,0,0.0,0.0,42,0.00,,,0.00,meteohub,2013-01-31 21:07:00,
2013-01-31 15:12:00,10.0,-8.0,22.11,North,0,0.0,0.0,43,0.00,,,0.00,meteohub,2013-01-31 21:12:00,
2013-01-31 15:17:00,9.9,-8.1,22.11,NE,45,0.0,0.0,43,0.00,,,0.00,meteohub,2013-01-31 21:17:00,
2013-01-31 15:22:00,9.9,-8.1,22.11,North,0,0.0,0.0,43,0.00,,,0.00,meteohub,2013-01-31 21:22:00,
2013-01-31 15:27:00,9.9,-7.8,22.11,NE,45,0.0,0.0,44,0.00,,,0.00,meteohub,2013-01-31 21:27:00,
2013-01-31 15:32:00,9.5,-8.0,22.10,East,90,0.0,0.0,44,0.00,,,0.00,meteohub,2013-01-31 21:32:00,
2013-01-31 15:37:00,9.3,-7.8,22.09,NNE,23,0.0,0.0,45,0.00,,,0.00,meteohub,2013-01-31 21:37:00,
2013-01-31 15:42:00,9.0,-7.2,22.09,East,90,0.0,0.0,47,0.00,,,0.00,meteohub,2013-01-31 21:42:00,
2013-01-31 15:47:00,8.8,-6.9,22.09,North,0,0.0,0.0,48,0.00,,,0.00,meteohub,2013-01-31 21:47:00,
2013-01-31 15:52:00,9.0,-6.3,22.09,North,0,0.0,0.0,49,0.00,,,0.00,meteohub,2013-01-31 21:52:00,
2013-01-31 15:57:00,8.6,-6.7,22.09,East,90,0.0,0.0,49,0.00,,,0.00,meteohub,2013-01-31 21:57:00,
2013-01-31 16:02:00,8.4,-6.9,22.09,North,0,0.0,0.0,49,0.00,,,0.00,meteohub,2013-01-31 22:02:00,
2013-01-31 16:07:00,8.4,-6.9,22.08,North,0,0.0,0.0,49,0.00,,,0.00,meteohub,2013-01-31 22:07:00,
2013-01-31 16:12:00,8.1,-7.6,22.08,NE,45,0.0,0.0,48,0.00,,,0.00,meteohub,2013-01-31 22:12:00,
2013-01-31 16:17:00,7.9,-8.1,22.08,NW,315,0.0,0.0,47,0.00,,,0.00,meteohub,2013-01-31 22:17:00,
2013-01-31 16:22:00,7.7,-8.3,22.07,NW,315,0.0,0.0,47,0.00,,,0.00,meteohub,2013-01-31 22:22:00,
2013-01-31 16:27:00,7.5,-8.1,22.07,North,0,0.0,0.0,48,0.00,,,0.00,meteohub,2013-01-31 22:27:00,
2013-01-31 16:32:00,7.2,-8.3,22.07,ENE,68,0.0,0.0,48,0.00,,,0.00,meteohub,2013-01-31 22:32:00,
2013-01-31 16:37:00,7.2,-8.3,22.06,North,0,0.0,0.0,48,0.00,,,0.00,meteohub,2013-01-31 22:37:00,
2013-01-31 16:42:00,7.0,-8.5,22.06,NE,45,0.0,0.0,48,0.00,,,0.00,meteohub,2013-01-31 22:42:00,
2013-01-31 16:47:00,6.8,-8.3,22.06,North,0,0.0,0.0,49,0.00,,,0.00,meteohub,2013-01-31 22:47:00,
2013-01-31 16:52:00,6.8,-8.0,22.06,NW,315,0.0,0.0,50,0.00,,,0.00,meteohub,2013-01-31 22:52:00,
2013-01-31 16:57:00,6.4,-7.8,22.06,NE,45,0.0,0.0,51,0.00,,,0.00,meteohub,2013-01-31 22:57:00,
2013-01-31 17:02:00,6.3,-7.6,22.05,NE,45,0.0,0.0,52,0.00,,,0.00,meteohub,2013-01-31 23:02:00,
2013-01-31 17:07:00,6.1,-7.8,22.05,NE,45,0.0,0.0,52,0.00,,,0.00,meteohub,2013-01-31 23:07:00,
2013-01-31 17:12:00,5.9,-8.0,22.05,NE,45,0.0,0.0,52,0.00,,,0.00,meteohub,2013-01-31 23:12:00,
2013-01-31 17:17:00,5.7,-8.1,22.05,North,0,0.0,0.0,52,0.00,,,0.00,meteohub,2013-01-31 23:17:00,
2013-01-31 17:22:00,5.7,-8.1,22.04,NE,45,0.0,0.0,52,0.00,,,0.00,meteohub,2013-01-31 23:22:00,
2013-01-31 17:27:00,5.5,-8.3,22.04,NE,45,0.0,0.0,52,0.00,,,0.00,meteohub,2013-01-31 23:27:00,
2013-01-31 17:32:00,5.4,-8.1,22.03,NE,45,0.0,0.0,53,0.00,,,0.00,meteohub,2013-01-31 23:32:00,
2013-01-31 17:37:00,5.4,-8.1,22.03,NE,45,0.0,0.0,53,0.00,,,0.00,meteohub,2013-01-31 23:37:00,
2013-01-31 17:42:00,5.4,-7.6,22.03,North,0,0.0,0.0,54,0.00,,,0.00,meteohub,2013-01-31 23:42:00,
2013-01-31 17:47:00,5.2,-7.8,22.03,North,0,0.0,0.0,54,0.00,,,0.00,meteohub,2013-01-31 23:47:00,
2013-01-31 17:52:00,5.2,-7.8,22.02,NW,315,0.0,0.0,54,0.00,,,0.00,meteohub,2013-01-31 23:52:00,
2013-01-31 17:57:00,5.2,-7.8,22.02,NE,45,0.0,0.0,54,0.00,,,0.00,meteohub,2013-01-31 23:57:00,
2013-01-31 18:01:00,5.0,-8.0,22.02,North,0,0.0,0.0,54,0.00,,,0.00,meteohub,2013-02-01 00:01:00,
2013-01-31 18:06:00,5.0,-8.0,22.02,North,0,0.0,0.0,54,0.00,,,0.00,meteohub,2013-02-01 00:06:00,
2013-01-31 18:11:00,4.8,-7.8,22.02,NE,45,0.0,0.0,55,0.00,,,0.00,meteohub,2013-02-01 00:11:00,
2013-01-31 18:16:00,4.6,-8.0,22.01,NE,45,0.0,0.0,55,0.00,,,0.00,meteohub,2013-02-01 00:16:00,
2013-01-31 18:21:00,4.6,-8.0,22.01,East,90,0.0,0.0,55,0.00,,,0.00,meteohub,2013-02-01 00:21:00,
2013-01-31 18:26:00,4.5,-8.5,22.00,North,0,0.0,0.0,54,0.00,,,0.00,meteohub,2013-02-01 00:26:00,
2013-01-31 18:31:00,4.3,-8.7,22.00,North,0,0.0,0.0,54,0.00,,,0.00,meteohub,2013-02-01 00:31:00,
2013-01-31 18:36:00,4.3,-8.7,22.00,NE,45,0.0,0.0,54,0.00,,,0.00,meteohub,2013-02-01 00:36:00,
2013-01-31 18:41:00,4.1,-8.9,22.00,North,0,0.0,0.0,54,0.00,,,0.00,meteohub,2013-02-01 00:41:00,
2013-01-31 18:46:00,3.9,-9.0,21.99,NNE,23,0.0,0.0,54,0.00,,,0.00,meteohub,2013-02-01 00:46:00,
2013-01-31 18:51:00,3.7,-9.2,21.99,NE,45,0.0,0.0,54,0.00,,,0.00,meteohub,2013-02-01 00:51:00,
2013-01-31 18:56:00,3.6,-9.8,21.99,North,0,0.0,0.0,53,0.00,,,0.00,meteohub,2013-02-01 00:56:00,
2013-01-31 19:01:00,3.4,-9.9,21.99,NE,45,0.0,0.0,53,0.00,,,0.00,meteohub,2013-02-01 01:01:00,
2013-01-31 19:06:00,3.2,-10.1,21.99,North,0,0.0,0.0,53,0.00,,,0.00,meteohub,2013-02-01 01:06:00,
2013-01-31 19:11:00,3.2,-10.1,21.99,SE,135,0.0,0.0,53,0.00,,,0.00,meteohub,2013-02-01 01:11:00,
2013-01-31 19:17:00,3.0,-9.9,21.98,NE,45,0.0,0.0,54,0.00,,,0.00,meteohub,2013-02-01 01:17:00,
2013-01-31 19:22:00,2.8,-10.5,21.98,NE,45,0.0,0.0,53,0.00,,,0.00,meteohub,2013-02-01 01:22:00,
2013-01-31 19:27:00,2.7,-10.7,21.98,North,0,0.0,0.0,53,0.00,,,0.00,meteohub,2013-02-01 01:27:00,
2013-01-31 19:32:00,2.7,-10.7,21.97,West,270,0.0,0.0,53,0.00,,,0.00,meteohub,2013-02-01 01:32:00,
2013-01-31 19:37:00,2.7,-10.7,21.97,North,0,0.0,0.0,53,0.00,,,0.00,meteohub,2013-02-01 01:37:00,
2013-01-31 19:42:00,2.5,-10.8,21.96,SE,135,0.0,0.0,53,0.00,,,0.00,meteohub,2013-02-01 01:42:00,
2013-01-31 19:47:00,2.5,-10.8,21.97,North,0,0.0,0.0,53,0.00,,,0.00,meteohub,2013-02-01 01:47:00,
2013-01-31 19:52:00,2.3,-10.8,21.97,North,0,0.0,0.0,53,0.00,,,0.00,meteohub,2013-02-01 01:52:00,
2013-01-31 19:57:00,2.3,-10.8,21.96,NE,45,0.0,0.0,53,0.00,,,0.00,meteohub,2013-02-01 01:57:00,
2013-01-31 20:02:00,2.1,-11.0,21.96,East,90,0.0,0.0,53,0.00,,,0.00,meteohub,2013-02-01 02:02:00,
2013-01-31 20:07:00,2.1,-11.0,21.96,East,90,0.0,0.0,53,0.00,,,0.00,meteohub,2013-02-01 02:07:00,
2013-01-31 20:12:00,1.8,-11.4,21.96,NE,45,0.0,0.0,53,0.00,,,0.00,meteohub,2013-02-01 02:12:00,
2013-01-31 20:17:00,1.8,-11.4,21.95,NE,45,0.0,0.0,53,0.00,,,0.00,meteohub,2013-02-01 02:17:00,
2013-01-31 20:22:00,1.8,-11.4,21.95,East,90,0.0,0.0,53,0.00,,,0.00,meteohub,2013-02-01 02:22:00,
2013-01-31 20:27:00,1.6,-11.6,21.95,North,0,0.0,0.0,53,0.00,,,0.00,meteohub,2013-02-01 02:27:00,
2013-01-31 20:32:00,1.6,-11.6,21.95,NE,45,0.0,0.0,53,0.00,,,0.00,meteohub,2013-02-01 02:32:00,
2013-01-31 20:37:00,1.4,-11.7,21.94,North,0,0.0,0.0,53,0.00,,,0.00,meteohub,2013-02-01 02:37:00,
2013-01-31 20:42:00,1.4,-11.7,21.94,North,0,0.0,0.0,53,0.00,,,0.00,meteohub,2013-02-01 02:42:00,
2013-01-31 20:47:00,1.2,-13.5,21.94,East,90,0.0,0.0,49,0.00,,,0.00,meteohub,2013-02-01 02:47:00,
2013-01-31 20:52:00,1.0,-13.7,21.94,NW,315,0.0,0.0,49,0.00,,,0.00,meteohub,2013-02-01 02:52:00,
2013-01-31 20:57:00,1.0,-13.7,21.94,NE,45,0.0,0.0,49,0.00,,,0.00,meteohub,2013-02-01 02:57:00,
2013-01-31 21:02:00,1.0,-13.7,21.94,North,0,0.0,0.0,49,0.00,,,0.00,meteohub,2013-02-01 03:02:00,
2013-01-31 21:07:00,1.0,-13.7,21.94,North,0,0.0,0.0,49,0.00,,,0.00,meteohub,2013-02-01 03:07:00,
2013-01-31 21:12:00,0.9,-13.9,21.93,NE,45,0.0,0.0,49,0.00,,,0.00,meteohub,2013-02-01 03:12:00,
2013-01-31 21:17:00,0.7,-14.1,21.93,NW,315,0.0,0.0,49,0.00,,,0.00,meteohub,2013-02-01 03:17:00,
2013-01-31 21:21:00,0.7,-14.1,21.94,North,0,0.0,0.0,49,0.00,,,0.00,meteohub,2013-02-01 03:21:00,
2013-01-31 21:26:00,0.5,-14.1,21.93,NE,45,0.0,0.0,49,0.00,,,0.00,meteohub,2013-02-01 03:26:00,
2013-01-31 21:31:00,0.5,-14.1,21.93,NE,45,0.0,0.0,49,0.00,,,0.00,meteohub,2013-02-01 03:31:00,
2013-01-31 21:36:00,0.5,-14.1,21.93,North,0,0.0,0.0,49,0.00,,,0.00,meteohub,2013-02-01 03:36:00,
2013-01-31 21:41:00,0.5,-14.1,21.93,NE,45,0.0,0.0,49,0.00,,,0.00,meteohub,2013-02-01 03:41:00,
2013-01-31 21:46:00,0.5,-14.1,21.92,North,0,0.0,0.0,49,0.00,,,0.00,meteohub,2013-02-01 03:46:00,
2013-01-31 21:51:00,0.5,-14.1,21.92,North,0,0.0,0.0,49,0.00,,,0.00,meteohub,2013-02-01 03:51:00,
2013-01-31 21:56:00,0.5,-14.1,21.91,North,0,0.0,0.0,49,0.00,,,0.00,meteohub,2013-02-01 03:56:00,
2013-01-31 22:01:00,0.5,-14.1,21.91,ENE,68,0.0,0.0,49,0.00,,,0.00,meteohub,2013-02-01 04:01:00,
2013-01-31 22:06:00,0.5,-14.1,21.91,ENE,68,0.0,0.0,49,0.00,,,0.00,meteohub,2013-02-01 04:06:00,
2013-01-31 22:11:00,0.3,-14.3,21.91,NW,315,0.0,0.0,49,0.00,,,0.00,meteohub,2013-02-01 04:11:00,
2013-01-31 22:16:00,0.1,-14.4,21.91,NW,315,0.0,0.0,49,0.00,,,0.00,meteohub,2013-02-01 04:16:00,
2013-01-31 22:21:00,0.1,-14.4,21.91,North,0,0.0,0.0,49,0.00,,,0.00,meteohub,2013-02-01 04:21:00,
2013-01-31 22:26:00,0.1,-14.4,21.91,NE,45,0.0,0.0,49,0.00,,,0.00,meteohub,2013-02-01 04:26:00,
2013-01-31 22:31:00,0.1,-14.4,21.91,SE,135,0.0,0.0,49,0.00,,,0.00,meteohub,2013-02-01 04:31:00,
2013-01-31 22:36:00,0.0,-14.6,21.91,NE,45,0.0,0.0,49,0.00,,,0.00,meteohub,2013-02-01 04:36:00,
2013-01-31 22:41:00,0.0,-14.6,21.91,East,90,0.0,0.0,49,0.00,,,0.00,meteohub,2013-02-01 04:41:00,
2013-01-31 22:46:00,-0.2,-14.8,21.91,North,0,0.0,0.0,49,0.00,,,0.00,meteohub,2013-02-01 04:46:00,
2013-01-31 22:51:00,-0.2,-14.8,21.91,North,0,0.0,0.0,49,0.00,,,0.00,meteohub,2013-02-01 04:51:00,
2013-01-31 22:56:00,-0.2,-14.8,21.91,NE,45,0.0,0.0,49,0.00,,,0.00,meteohub,2013-02-01 04:56:00,
2013-01-31 23:00:00,-0.2,-15.2,21.90,North,0,0.0,0.0,48,0.00,,,0.00,meteohub,2013-02-01 05:00:00,
2013-01-31 23:02:00,-0.4,-15.3,21.91,NE,45,0.0,0.0,48,0.00,,,0.00,meteohub,2013-02-01 05:02:00,
2013-01-31 23:07:00,-0.4,-15.3,21.90,NE,45,0.0,0.0,48,0.00,,,0.00,meteohub,2013-02-01 05:07:00,
2013-01-31 23:12:00,-0.4,-15.3,21.90,NE,45,0.0,0.0,48,0.00,,,0.00,meteohub,2013-02-01 05:12:00,
2013-01-31 23:17:00,-0.6,-15.2,21.90,NE,45,0.0,0.0,49,0.00,,,0.00,meteohub,2013-02-01 05:17:00,
2013-01-31 23:22:00,-0.8,-15.3,21.90,North,0,0.0,0.0,49,0.00,,,0.00,meteohub,2013-02-01 05:22:00,
2013-01-31 23:26:00,-0.6,-14.8,21.90,North,0,0.0,0.0,50,0.00,,,0.00,meteohub,2013-02-01 05:26:00,
2013-01-31 23:31:00,-0.6,-15.2,21.90,NE,45,0.0,0.0,49,0.00,,,0.00,meteohub,2013-02-01 05:31:00,
2013-01-31 23:36:00,-0.6,-15.2,21.89,North,0,0.0,0.0,49,0.00,,,0.00,meteohub,2013-02-01 05:36:00,
2013-01-31 23:41:00,-0.8,-15.3,21.89,North,0,0.0,0.0,49,0.00,,,0.00,meteohub,2013-02-01 05:41:00,
2013-01-31 23:46:00,-0.9,-15.5,21.89,SW,225,0.0,0.0,49,0.00,,,0.00,meteohub,2013-02-01 05:46:00,
2013-01-31 23:51:00,-0.9,-15.5,21.88,NNE,23,0.0,0.0,49,0.00,,,0.00,meteohub,2013-02-01 05:51:00,
2013-01-31 23:56:00,-0.9,-15.5,21.88,North,0,0.0,0.0,49,0.00,,,0.00,meteohub,2013-02-01 05:56:00,